AKU706 NFFN-NZWN

Flight info

Callsign AKU706
Flight time N/A
Altitude 39000
Route FOXTRO AGTOS A578 AGTEM DCT EGATO DCT 30S177E DCT TARIB/N0482F400 DCT WK Y780 TARUA H364 PM V242 DOGAD
Aircraft B77L/H-SDE1E2E3FGHIJ2J3J4J5M1RWXY/LB1D1

Departure

Time 2026-05-06 04:28
Airport Nadi International Airport (NFFN)

Arrival

Time N/A
Airport Wellington International Airport (NZWN)
Time Latitude Longitude Altitude Speed Heading
2026-05-06 04:15 -17.75147 177.45069 55 ft 0 kts 197°
2026-05-06 04:23 -17.75139 177.45071 50 ft 2 kts 194°
2026-05-06 04:23 -17.75126 177.45075 53 ft 2 kts 198°
2026-05-06 04:24 -17.75111 177.45081 49 ft 2 kts 204°
2026-05-06 04:24 -17.75096 177.45090 49 ft 2 kts 227°
2026-05-06 04:24 -17.75091 177.45104 50 ft 2 kts 281°
2026-05-06 04:24 -17.75092 177.45109 50 ft 0 kts 282°
2026-05-06 04:26 -17.75077 177.45045 49 ft 24 kts 284°
2026-05-06 04:27 -17.75036 177.44891 54 ft 20 kts 285°
2026-05-06 04:27 -17.75009 177.44771 53 ft 12 kts 275°
2026-05-06 04:27 -17.75059 177.44697 51 ft 17 kts 220°
2026-05-06 04:27 -17.75379 177.44439 50 ft 117 kts 218°
2026-05-06 04:28 -17.76292 177.43692 551 ft 190 kts 216°
2026-05-06 04:28 -17.77325 177.42817 1997 ft 192 kts 216°
2026-05-06 04:28 -17.78470 177.41891 2710 ft 225 kts 214°
2026-05-06 04:28 -17.79819 177.40812 3218 ft 257 kts 215°
2026-05-06 04:29 -17.81263 177.39650 4276 ft 265 kts 215°
2026-05-06 04:29 -17.82746 177.38448 5405 ft 272 kts 216°
2026-05-06 04:29 -17.84248 177.37227 6618 ft 274 kts 216°
2026-05-06 04:29 -17.85768 177.35989 7739 ft 278 kts 217°
2026-05-06 04:30 -17.87283 177.34753 8860 ft 281 kts 217°
2026-05-06 04:30 -17.88835 177.33488 9961 ft 284 kts 216°
2026-05-06 04:30 -17.90616 177.32517 10791 ft 294 kts 195°
2026-05-06 04:30 -17.92697 177.32210 11153 ft 321 kts 186°
2026-05-06 04:31 -17.95037 177.32018 11399 ft 354 kts 185°
2026-05-06 04:31 -17.97569 177.31835 12025 ft 369 kts 185°
2026-05-06 04:31 -18.00153 177.31651 13048 ft 374 kts 185°
2026-05-06 04:31 -18.02760 177.31460 14159 ft 375 kts 186°
2026-05-06 04:32 -18.05394 177.31261 15017 ft 382 kts 186°
2026-05-06 04:32 -18.08035 177.31054 15830 ft 388 kts 186°
2026-05-06 04:32 -18.10766 177.30835 16585 ft 396 kts 186°
2026-05-06 04:32 -18.13556 177.30608 17365 ft 403 kts 186°
2026-05-06 04:33 -18.16328 177.30380 18176 ft 407 kts 186°
2026-05-06 04:33 -18.19159 177.30147 18939 ft 409 kts 186°
2026-05-06 04:33 -18.22016 177.29912 19752 ft 409 kts 187°
2026-05-06 04:33 -18.24866 177.29677 20543 ft 411 kts 187°
2026-05-06 04:34 -18.27710 177.29441 21281 ft 413 kts 187°
2026-05-06 04:34 -18.30590 177.29203 21998 ft 416 kts 187°
2026-05-06 04:34 -18.33456 177.28966 22697 ft 418 kts 187°
2026-05-06 04:34 -18.36379 177.28723 23404 ft 421 kts 187°
2026-05-06 04:35 -18.39319 177.28480 23967 ft 423 kts 187°
2026-05-06 04:35 -18.42252 177.28237 24466 ft 427 kts 187°
2026-05-06 04:35 -18.45238 177.27989 24973 ft 431 kts 187°
2026-05-06 04:35 -18.48210 177.27742 25473 ft 434 kts 188°
2026-05-06 04:36 -18.51248 177.27490 25983 ft 437 kts 188°
2026-05-06 04:36 -18.54298 177.27237 26494 ft 440 kts 188°
2026-05-06 04:36 -18.57333 177.26986 26983 ft 443 kts 188°
2026-05-06 04:36 -18.60421 177.26729 27488 ft 447 kts 188°
2026-05-06 04:37 -18.63530 177.26471 27988 ft 450 kts 188°
2026-05-06 04:37 -18.66657 177.26211 28454 ft 453 kts 188°
2026-05-06 04:37 -18.69816 177.25949 28907 ft 456 kts 188°
2026-05-06 04:37 -18.72984 177.25686 29359 ft 458 kts 188°
2026-05-06 04:38 -18.76178 177.25420 29783 ft 461 kts 188°
2026-05-06 04:38 -18.79386 177.25154 30225 ft 462 kts 188°
2026-05-06 04:38 -18.82580 177.24890 30815 ft 458 kts 189°
2026-05-06 04:38 -18.85741 177.24629 31428 ft 454 kts 189°
2026-05-06 04:39 -18.88878 177.24370 32036 ft 451 kts 189°
2026-05-06 04:39 -18.92004 177.24110 32614 ft 449 kts 189°
2026-05-06 04:39 -18.95110 177.23851 33181 ft 446 kts 189°
2026-05-06 04:39 -18.98198 177.23593 33761 ft 444 kts 189°
2026-05-06 04:40 -19.01232 177.23340 34242 ft 442 kts 189°
2026-05-06 04:40 -19.04300 177.23083 34596 ft 443 kts 189°
2026-05-06 04:40 -19.07381 177.22825 34925 ft 444 kts 189°
2026-05-06 04:40 -19.10458 177.22567 35302 ft 444 kts 189°
2026-05-06 04:41 -19.13537 177.22310 35678 ft 444 kts 189°
2026-05-06 04:41 -19.16612 177.22054 36061 ft 443 kts 189°
2026-05-06 04:41 -19.19697 177.21796 36428 ft 443 kts 189°
2026-05-06 04:41 -19.22766 177.21539 36789 ft 443 kts 189°
2026-05-06 04:42 -19.25849 177.21281 36907 ft 446 kts 189°
2026-05-06 04:42 -19.32041 177.20762 36899 ft 444 kts 189°
2026-05-06 04:43 -19.38137 177.20100 36911 ft 438 kts 191°
2026-05-06 04:43 -19.44138 177.19366 36907 ft 436 kts 191°
2026-05-06 04:44 -19.50160 177.18640 36916 ft 436 kts 191°
2026-05-06 04:44 -19.56225 177.17924 37264 ft 439 kts 191°
2026-05-06 04:44 -19.59257 177.17570 37691 ft 437 kts 191°
2026-05-06 04:45 -19.62275 177.17218 37945 ft 438 kts 191°
2026-05-06 04:45 -19.67313 177.16630 37917 ft 436 kts 191°
2026-05-06 04:46 -19.73353 177.15923 38283 ft 436 kts 191°
2026-05-06 04:46 -19.76366 177.15571 38687 ft 434 kts 191°
2026-05-06 04:46 -19.79360 177.15220 38938 ft 434 kts 191°
2026-05-06 04:47 -19.85380 177.14512 38919 ft 434 kts 191°
2026-05-06 04:47 -19.91356 177.13812 38921 ft 430 kts 191°
2026-05-06 04:48 -19.97292 177.13116 38925 ft 428 kts 191°
2026-05-06 04:48 -20.03191 177.12422 38926 ft 426 kts 191°
2026-05-06 04:49 -20.09079 177.11728 38927 ft 425 kts 191°
2026-05-06 04:49 -20.14922 177.11040 38932 ft 425 kts 191°
2026-05-06 04:50 -20.20817 177.10346 38930 ft 426 kts 191°
2026-05-06 04:50 -20.26749 177.09952 38936 ft 431 kts 184°
2026-05-06 04:51 -20.32758 177.10244 38937 ft 432 kts 183°
2026-05-06 04:51 -20.38770 177.10557 38947 ft 432 kts 183°
2026-05-06 04:52 -20.44786 177.10858 38943 ft 432 kts 184°
2026-05-06 04:52 -20.50793 177.11148 38947 ft 432 kts 184°
2026-05-06 04:53 -20.56797 177.11435 38949 ft 432 kts 184°
2026-05-06 04:53 -20.62764 177.11720 38949 ft 431 kts 184°